Terminal Aerodrome Forecast
Issued by NWS

Current Version | Previous Version | Graphics & Text | Print | Product List | Glossary On
Versions: 1 2 3 4 5 6 7 8 9 10 11 12 13 14 15 16 17 18 19 20 21 22 23 24 25 26 27 28 29 30 31 32 33 34 35 36 37
000
FTUS41 KRNK 121128
TAFLWB
TAF
KLWB 121128Z 1212/1312 00000KT 3SM BR SCT070
     FM121400 25005KT P6SM SCT045
     FM130000 00000KT P6SM SCT250
     FM130700 00000KT 5SM BR BKN200=

USA.gov is the U.S. government's official web portal to all federal, state and local government web resources and services.